Time,TemperatureF,DewpointF,PressureIn,WindDirection,WindDirectionDegrees,WindSpeedMPH,WindSpeedGustMPH,Humidity,HourlyPrecipIn,Conditions,Clouds,dailyrainin,SoftwareType,DateUTC
2013-06-01 00:00:00,80.4,76.5,29.76,SW,214,6.0,9.0,88,0.00,,,0.00,Wunderground v.1.15,2013-06-01 05:00:00,
2013-06-01 00:09:00,80.5,76.6,29.76,SW,235,6.0,12.0,88,0.00,,,0.00,Wunderground v.1.15,2013-06-01 05:09:00,
2013-06-01 00:14:00,80.6,76.7,29.76,SE,131,5.0,12.0,88,0.00,,,0.00,Wunderground v.1.15,2013-06-01 05:14:00,
2013-06-01 00:19:00,80.6,76.7,29.76,SSW,205,5.0,5.0,88,0.00,,,0.00,Wunderground v.1.15,2013-06-01 05:19:00,
2013-06-01 00:24:00,80.6,76.7,29.76,ESE,122,7.0,7.0,88,0.00,,,0.00,Wunderground v.1.15,2013-06-01 05:24:00,
2013-06-01 00:29:00,80.6,76.4,29.76,SE,136,7.0,7.0,87,0.00,,,0.00,Wunderground v.1.15,2013-06-01 05:29:00,
2013-06-01 00:34:00,80.6,76.4,29.76,South,177,5.0,10.0,87,0.00,,,0.00,Wunderground v.1.15,2013-06-01 05:34:00,
2013-06-01 00:40:00,80.6,76.4,29.76,South,181,5.0,7.0,87,0.00,,,0.00,Wunderground v.1.15,2013-06-01 05:40:00,
2013-06-01 00:45:00,80.6,76.4,29.76,SE,127,6.0,7.0,87,0.00,,,0.00,Wunderground v.1.15,2013-06-01 05:45:00,
2013-06-01 00:50:00,80.7,76.8,29.76,ESE,105,6.0,7.0,88,0.00,,,0.00,Wunderground v.1.15,2013-06-01 05:50:00,
2013-06-01 00:55:00,80.7,76.5,29.75,SSE,158,6.0,7.0,87,0.00,,,0.00,Wunderground v.1.15,2013-06-01 05:55:00,
2013-06-01 01:00:00,80.6,76.4,29.75,SE,136,6.0,13.0,87,0.00,,,0.00,Wunderground v.1.15,2013-06-01 06:00:00,
2013-06-01 01:09:00,80.6,76.4,29.75,SSE,160,7.0,7.0,87,0.00,,,0.00,Wunderground v.1.15,2013-06-01 06:09:00,
2013-06-01 01:19:00,80.6,76.4,29.75,SSE,165,6.0,10.0,87,0.00,,,0.00,Wunderground v.1.15,2013-06-01 06:19:00,
2013-06-01 01:24:00,80.6,76.4,29.76,WSW,242,6.0,10.0,87,0.00,,,0.00,Wunderground v.1.15,2013-06-01 06:24:00,
2013-06-01 01:29:00,80.6,76.4,29.75,SSE,156,5.0,7.0,87,0.00,,,0.00,Wunderground v.1.15,2013-06-01 06:29:00,
2013-06-01 01:34:00,80.5,76.3,29.75,SSW,193,6.0,18.0,87,0.00,,,0.00,Wunderground v.1.15,2013-06-01 06:34:00,
2013-06-01 01:39:00,80.6,76.4,29.75,SSW,204,6.0,7.0,87,0.00,,,0.00,Wunderground v.1.15,2013-06-01 06:39:00,
2013-06-01 01:45:00,80.5,76.3,29.75,SSE,166,7.0,8.0,87,0.00,,,0.00,Wunderground v.1.15,2013-06-01 06:45:00,
2013-06-01 01:50:00,80.5,76.3,29.75,SSE,147,7.0,7.0,87,0.00,,,0.00,Wunderground v.1.15,2013-06-01 06:50:00,
2013-06-01 01:55:00,80.5,76.3,29.75,SE,141,6.0,7.0,87,0.00,,,0.00,Wunderground v.1.15,2013-06-01 06:55:00,
2013-06-01 02:00:00,80.5,76.3,29.75,South,170,5.0,11.0,87,0.00,,,0.00,Wunderground v.1.15,2013-06-01 07:00:00,
2013-06-01 02:10:00,80.5,76.3,29.74,ESE,119,6.0,11.0,87,0.00,,,0.00,Wunderground v.1.15,2013-06-01 07:10:00,
2013-06-01 02:15:00,80.6,76.4,29.75,SE,145,7.0,11.0,87,0.00,,,0.00,Wunderground v.1.15,2013-06-01 07:15:00,
2013-06-01 02:24:00,80.7,76.5,29.74,SSE,151,7.0,7.0,87,0.00,,,0.00,Wunderground v.1.15,2013-06-01 07:24:00,
2013-06-01 02:29:00,80.7,76.5,29.74,ESE,122,7.0,7.0,87,0.00,,,0.00,Wunderground v.1.15,2013-06-01 07:29:00,
2013-06-01 02:34:00,80.7,76.5,29.74,South,183,7.0,7.0,87,0.00,,,0.00,Wunderground v.1.15,2013-06-01 07:34:00,
2013-06-01 02:39:00,80.6,76.4,29.74,SSE,149,8.0,12.0,87,0.00,,,0.00,Wunderground v.1.15,2013-06-01 07:39:00,
2013-06-01 02:44:00,80.6,76.4,29.74,SSE,167,8.0,12.0,87,0.00,,,0.00,Wunderground v.1.15,2013-06-01 07:44:00,
2013-06-01 02:50:00,80.6,76.4,29.74,SE,134,8.0,8.0,87,0.00,,,0.00,Wunderground v.1.15,2013-06-01 07:50:00,
2013-06-01 02:55:00,80.6,76.4,29.74,ESE,103,7.0,8.0,87,0.00,,,0.00,Wunderground v.1.15,2013-06-01 07:55:00,
2013-06-01 03:00:00,80.6,76.4,29.74,SE,139,5.0,7.0,87,0.00,,,0.00,Wunderground v.1.15,2013-06-01 08:00:00,
2013-06-01 03:10:00,80.4,76.2,29.74,ESE,110,7.0,7.0,87,0.00,,,0.00,Wunderground v.1.15,2013-06-01 08:10:00,
2013-06-01 03:15:00,80.4,76.2,29.74,South,183,6.0,8.0,87,0.00,,,0.00,Wunderground v.1.15,2013-06-01 08:15:00,
2013-06-01 03:20:00,80.4,76.2,29.74,SW,217,7.0,7.0,87,0.00,,,0.00,Wunderground v.1.15,2013-06-01 08:20:00,
2013-06-01 03:29:00,80.4,76.2,29.74,SE,132,6.0,6.0,87,0.00,,,0.00,Wunderground v.1.15,2013-06-01 08:29:00,
2013-06-01 03:34:00,80.4,76.2,29.75,SSE,165,6.0,6.0,87,0.00,,,0.00,Wunderground v.1.15,2013-06-01 08:34:00,
2013-06-01 03:39:00,80.5,76.3,29.75,SSE,156,6.0,6.0,87,0.00,,,0.00,Wunderground v.1.15,2013-06-01 08:39:00,
2013-06-01 03:44:00,80.4,76.2,29.74,ESE,113,7.0,9.0,87,0.00,,,0.00,Wunderground v.1.15,2013-06-01 08:44:00,
2013-06-01 03:49:00,80.5,76.3,29.74,SW,236,7.0,7.0,87,0.00,,,0.00,Wunderground v.1.15,2013-06-01 08:49:00,
2013-06-01 03:55:00,80.6,76.0,29.74,SSW,201,8.0,16.0,86,0.00,,,0.00,Wunderground v.1.15,2013-06-01 08:55:00,
2013-06-01 04:00:00,80.6,76.0,29.75,South,172,7.0,14.0,86,0.00,,,0.00,Wunderground v.1.15,2013-06-01 09:00:00,
2013-06-01 04:10:00,80.7,76.5,29.74,SSE,168,5.0,7.0,87,0.00,,,0.00,Wunderground v.1.15,2013-06-01 09:10:00,
2013-06-01 04:15:00,80.7,76.5,29.75,South,181,5.0,11.0,87,0.00,,,0.00,Wunderground v.1.15,2013-06-01 09:15:00,
2013-06-01 04:20:00,80.7,76.1,29.74,ESE,105,7.0,7.0,86,0.00,,,0.00,Wunderground v.1.15,2013-06-01 09:20:00,
2013-06-01 04:25:00,80.7,76.1,29.74,South,186,8.0,8.0,86,0.00,,,0.00,Wunderground v.1.15,2013-06-01 09:25:00,
2013-06-01 04:34:00,80.7,76.1,29.74,South,173,6.0,6.0,86,0.00,,,0.00,Wunderground v.1.15,2013-06-01 09:34:00,
2013-06-01 04:39:00,80.7,76.1,29.75,SSE,165,6.0,11.0,86,0.00,,,0.00,Wunderground v.1.15,2013-06-01 09:39:00,
2013-06-01 04:44:00,80.7,76.1,29.75,ESE,109,6.0,11.0,86,0.00,,,0.00,Wunderground v.1.15,2013-06-01 09:44:00,
2013-06-01 04:49:00,80.7,76.1,29.75,SSE,153,6.0,6.0,86,0.00,,,0.00,Wunderground v.1.15,2013-06-01 09:49:00,
2013-06-01 04:54:00,80.7,76.1,29.75,SSE,158,6.0,6.0,86,0.00,,,0.00,Wunderground v.1.15,2013-06-01 09:54:00,
2013-06-01 05:00:00,80.6,76.0,29.74,SSE,153,7.0,7.0,86,0.00,,,0.00,Wunderground v.1.15,2013-06-01 10:00:00,
2013-06-01 05:10:00,80.5,75.9,29.75,SSE,156,6.0,7.0,86,0.00,,,0.00,Wunderground v.1.15,2013-06-01 10:10:00,
2013-06-01 05:15:00,80.5,75.9,29.75,SW,217,7.0,7.0,86,0.00,,,0.00,Wunderground v.1.15,2013-06-01 10:15:00,
2013-06-01 05:20:00,80.5,75.9,29.75,SE,135,7.0,7.0,86,0.00,,,0.00,Wunderground v.1.15,2013-06-01 10:20:00,
2013-06-01 05:25:00,80.5,75.9,29.75,SW,228,7.0,8.0,86,0.00,,,0.00,Wunderground v.1.15,2013-06-01 10:25:00,
2013-06-01 05:30:00,80.5,75.9,29.75,South,188,8.0,8.0,86,0.00,,,0.00,Wunderground v.1.15,2013-06-01 10:30:00,
2013-06-01 05:39:00,80.4,75.8,29.75,South,177,7.0,7.0,86,0.00,,,0.00,Wunderground v.1.15,2013-06-01 10:39:00,
2013-06-01 05:44:00,80.5,75.9,29.74,SW,224,7.0,11.0,86,0.00,,,0.00,Wunderground v.1.15,2013-06-01 10:44:00,
2013-06-01 05:49:00,80.5,75.9,29.74,West,277,7.0,7.0,86,0.00,,,0.00,Wunderground v.1.15,2013-06-01 10:49:00,
2013-06-01 05:54:00,80.5,75.9,29.74,SSE,148,7.0,7.0,86,0.00,,,0.00,Wunderground v.1.15,2013-06-01 10:54:00,
2013-06-01 06:00:00,80.5,75.9,29.74,SE,141,7.0,9.0,86,0.00,,,0.00,Wunderground v.1.15,2013-06-01 11:00:00,
2013-06-01 06:10:00,80.4,76.2,29.75,WNW,300,6.0,6.0,87,0.00,,,0.00,Wunderground v.1.15,2013-06-01 11:10:00,
2013-06-01 06:15:00,80.5,76.3,29.75,SE,145,6.0,6.0,87,0.00,,,0.00,Wunderground v.1.15,2013-06-01 11:15:00,
2013-06-01 06:20:00,80.4,76.2,29.75,South,174,5.0,5.0,87,0.00,,,0.00,Wunderground v.1.15,2013-06-01 11:20:00,
2013-06-01 06:25:00,80.4,76.2,29.75,SE,131,4.0,7.0,87,0.00,,,0.00,Wunderground v.1.15,2013-06-01 11:25:00,
2013-06-01 06:30:00,80.3,76.1,29.75,South,174,5.0,7.0,87,0.00,,,0.00,Wunderground v.1.15,2013-06-01 11:30:00,
2013-06-01 06:35:00,80.2,76.0,29.75,SSW,193,5.0,7.0,87,0.00,,,0.00,Wunderground v.1.15,2013-06-01 11:35:00,
2013-06-01 06:44:00,80.2,76.0,29.75,South,185,6.0,7.0,87,0.00,,,0.00,Wunderground v.1.15,2013-06-01 11:44:00,
2013-06-01 06:49:00,80.2,76.0,29.75,SE,141,6.0,6.0,87,0.00,,,0.00,Wunderground v.1.15,2013-06-01 11:49:00,
2013-06-01 06:54:00,80.1,75.9,29.75,South,177,6.0,8.0,87,0.00,,,0.00,Wunderground v.1.15,2013-06-01 11:54:00,
2013-06-01 07:00:00,80.1,75.9,29.75,SSE,148,6.0,6.0,87,0.00,,,0.00,Wunderground v.1.15,2013-06-01 12:00:00,
2013-06-01 07:10:00,80.2,75.6,29.75,SSE,159,6.0,6.0,86,0.00,,,0.00,Wunderground v.1.15,2013-06-01 12:10:00,
2013-06-01 07:15:00,80.3,75.7,29.76,South,186,6.0,11.0,86,0.00,,,0.00,Wunderground v.1.15,2013-06-01 12:15:00,
2013-06-01 07:20:00,80.3,75.7,29.76,SSE,161,7.0,11.0,86,0.00,,,0.00,Wunderground v.1.15,2013-06-01 12:20:00,
2013-06-01 07:25:00,80.3,75.7,29.76,SSW,193,7.0,11.0,86,0.00,,,0.00,Wunderground v.1.15,2013-06-01 12:25:00,
2013-06-01 07:30:00,80.3,75.7,29.76,ESE,117,6.0,7.0,86,0.00,,,0.00,Wunderground v.1.15,2013-06-01 12:30:00,
2013-06-01 07:35:00,80.7,75.8,29.77,SSW,209,6.0,7.0,85,0.00,,,0.00,Wunderground v.1.15,2013-06-01 12:35:00,
2013-06-01 07:40:00,81.0,75.7,29.76,SSE,152,7.0,7.0,84,0.00,,,0.00,Wunderground v.1.15,2013-06-01 12:40:00,
2013-06-01 07:49:00,81.1,75.8,29.77,SSW,197,7.0,7.0,84,0.00,,,0.00,Wunderground v.1.15,2013-06-01 12:49:00,
2013-06-01 07:54:00,81.1,76.2,29.77,South,176,7.0,9.0,85,0.00,,,0.00,Wunderground v.1.15,2013-06-01 12:54:00,
2013-06-01 08:00:00,81.0,76.1,29.77,South,187,6.0,10.0,85,0.00,,,0.00,Wunderground v.1.15,2013-06-01 13:00:00,
2013-06-01 08:10:00,81.5,76.2,29.78,South,184,5.0,10.0,84,0.00,,,0.00,Wunderground v.1.15,2013-06-01 13:10:00,
2013-06-01 08:20:00,82.1,76.1,29.78,SSW,195,8.0,8.0,82,0.00,,,0.00,Wunderground v.1.15,2013-06-01 13:20:00,
2013-06-01 08:25:00,82.0,76.0,29.78,SSW,198,7.0,10.0,82,0.00,,,0.00,Wunderground v.1.15,2013-06-01 13:25:00,
2013-06-01 08:30:00,82.1,76.1,29.78,South,170,9.0,17.0,82,0.00,,,0.00,Wunderground v.1.15,2013-06-01 13:30:00,
2013-06-01 08:35:00,82.0,76.0,29.78,SSE,155,10.0,17.0,82,0.00,,,0.00,Wunderground v.1.15,2013-06-01 13:35:00,
2013-06-01 08:40:00,82.1,76.1,29.78,SSE,158,9.0,9.0,82,0.00,,,0.00,Wunderground v.1.15,2013-06-01 13:40:00,
2013-06-01 08:45:00,82.7,76.3,29.78,SSE,160,9.0,9.0,81,0.00,,,0.00,Wunderground v.1.15,2013-06-01 13:45:00,
2013-06-01 08:55:00,83.7,76.1,29.78,South,183,9.0,18.0,78,0.00,,,0.00,Wunderground v.1.15,2013-06-01 13:55:00,
2013-06-01 09:00:00,83.8,76.2,29.78,South,183,9.0,9.0,78,0.00,,,0.00,Wunderground v.1.15,2013-06-01 14:00:00,
2013-06-01 09:10:00,83.9,76.3,29.78,SE,131,8.0,8.0,78,0.00,,,0.00,Wunderground v.1.15,2013-06-01 14:10:00,
2013-06-01 09:15:00,84.0,76.4,29.78,WSW,243,8.0,10.0,78,0.00,,,0.00,Wunderground v.1.15,2013-06-01 14:15:00,
2013-06-01 09:25:00,84.1,76.5,29.78,West,261,7.0,8.0,78,0.00,,,0.00,Wunderground v.1.15,2013-06-01 14:25:00,
2013-06-01 09:30:00,83.8,76.2,29.79,SSW,211,8.0,8.0,78,0.00,,,0.00,Wunderground v.1.15,2013-06-01 14:30:00,
2013-06-01 09:35:00,83.5,75.9,29.78,South,188,10.0,10.0,78,0.00,,,0.00,Wunderground v.1.15,2013-06-01 14:35:00,
2013-06-01 09:40:00,83.9,76.3,29.79,SE,131,9.0,9.0,78,0.00,,,0.00,Wunderground v.1.15,2013-06-01 14:40:00,
2013-06-01 09:45:00,84.0,76.0,29.78,South,175,8.0,13.0,77,0.00,,,0.00,Wunderground v.1.15,2013-06-01 14:45:00,
2013-06-01 09:50:00,84.3,76.3,29.79,SSW,201,9.0,9.0,77,0.00,,,0.00,Wunderground v.1.15,2013-06-01 14:50:00,
2013-06-01 10:00:00,85.0,76.6,29.78,South,187,8.0,15.0,76,0.00,,,0.00,Wunderground v.1.15,2013-06-01 15:00:00,
2013-06-01 10:10:00,85.4,76.6,29.79,SE,145,10.0,10.0,75,0.00,,,0.00,Wunderground v.1.15,2013-06-01 15:10:00,
2013-06-01 10:15:00,85.1,76.7,29.78,South,180,9.0,10.0,76,0.00,,,0.00,Wunderground v.1.15,2013-06-01 15:15:00,
2013-06-01 10:20:00,85.6,76.4,29.78,SE,141,8.0,8.0,74,0.00,,,0.00,Wunderground v.1.15,2013-06-01 15:20:00,
2013-06-01 10:30:00,85.9,76.6,29.78,SSW,195,9.0,9.0,74,0.00,,,0.00,Wunderground v.1.15,2013-06-01 15:30:00,
2013-06-01 10:35:00,86.3,76.6,29.78,South,173,7.0,9.0,73,0.00,,,0.00,Wunderground v.1.15,2013-06-01 15:35:00,
2013-06-01 10:40:00,86.5,76.8,29.78,SE,141,7.0,7.0,73,0.00,,,0.00,Wunderground v.1.15,2013-06-01 15:40:00,
2013-06-01 10:45:00,86.8,76.3,29.78,South,186,7.0,7.0,71,0.00,,,0.00,Wunderground v.1.15,2013-06-01 15:45:00,
2013-06-01 10:50:00,86.3,76.2,29.79,WSW,250,8.0,8.0,72,0.00,,,0.00,Wunderground v.1.15,2013-06-01 15:50:00,
2013-06-01 10:55:00,86.6,76.5,29.79,South,191,7.0,8.0,72,0.00,,,0.00,Wunderground v.1.15,2013-06-01 15:55:00,
2013-06-01 11:00:00,86.6,76.9,29.79,SSW,198,6.0,7.0,73,0.00,,,0.00,Wunderground v.1.15,2013-06-01 16:00:00,
2013-06-01 11:09:00,86.7,77.0,29.78,East,91,8.0,8.0,73,0.00,,,0.00,Wunderground v.1.15,2013-06-01 16:09:00,
2013-06-01 11:14:00,87.2,77.5,29.79,South,191,7.0,8.0,73,0.00,,,0.00,Wunderground v.1.15,2013-06-01 16:14:00,
2013-06-01 11:19:00,87.4,77.3,29.78,SSW,198,7.0,13.0,72,0.00,,,0.00,Wunderground v.1.15,2013-06-01 16:19:00,
2013-06-01 11:24:00,87.4,77.3,29.78,SSW,197,8.0,13.0,72,0.00,,,0.00,Wunderground v.1.15,2013-06-01 16:24:00,
2013-06-01 11:29:00,87.9,77.3,29.78,ESE,122,7.0,7.0,71,0.00,,,0.00,Wunderground v.1.15,2013-06-01 16:29:00,
2013-06-01 11:35:00,87.8,77.2,29.78,SSE,158,6.0,9.0,71,0.00,,,0.00,Wunderground v.1.15,2013-06-01 16:35:00,
2013-06-01 11:40:00,87.5,77.4,29.78,SW,217,7.0,7.0,72,0.00,,,0.00,Wunderground v.1.15,2013-06-01 16:40:00,
2013-06-01 11:45:00,87.5,77.4,29.78,SSE,163,7.0,7.0,72,0.00,,,0.00,Wunderground v.1.15,2013-06-01 16:45:00,
2013-06-01 11:50:00,87.8,78.1,29.78,SSW,195,6.0,6.0,73,0.00,,,0.00,Wunderground v.1.15,2013-06-01 16:50:00,
2013-06-01 11:55:00,88.3,77.7,29.78,SE,136,6.0,6.0,71,0.00,,,0.00,Wunderground v.1.15,2013-06-01 16:55:00,
2013-06-01 12:00:00,88.4,77.8,29.78,SSE,158,7.0,7.0,71,0.00,,,0.00,Wunderground v.1.15,2013-06-01 17:00:00,
2013-06-01 12:09:00,89.0,77.9,29.78,SSW,204,6.0,6.0,70,0.00,,,0.00,Wunderground v.1.15,2013-06-01 17:09:00,
2013-06-01 12:14:00,89.5,77.5,29.78,South,173,6.0,10.0,68,0.00,,,0.00,Wunderground v.1.15,2013-06-01 17:14:00,
2013-06-01 12:19:00,89.3,78.2,29.78,SE,139,6.0,6.0,70,0.00,,,0.00,Wunderground v.1.15,2013-06-01 17:19:00,
2013-06-01 12:24:00,89.3,78.2,29.78,ESE,120,6.0,6.0,70,0.00,,,0.00,Wunderground v.1.15,2013-06-01 17:24:00,
2013-06-01 12:29:00,89.5,78.0,29.78,South,173,6.0,10.0,69,0.00,,,0.00,Wunderground v.1.15,2013-06-01 17:29:00,
2013-06-01 12:34:00,89.3,78.2,29.77,South,191,7.0,10.0,70,0.00,,,0.00,Wunderground v.1.15,2013-06-01 17:34:00,
2013-06-01 12:40:00,89.3,78.7,29.77,SSE,156,7.0,7.0,71,0.00,,,0.00,Wunderground v.1.15,2013-06-01 17:40:00,
2013-06-01 12:45:00,89.3,78.2,29.78,ESE,122,7.0,12.0,70,0.00,,,0.00,Wunderground v.1.15,2013-06-01 17:45:00,
2013-06-01 12:50:00,89.3,78.2,29.77,SSW,210,7.0,7.0,70,0.00,,,0.00,Wunderground v.1.15,2013-06-01 17:50:00,
2013-06-01 12:55:00,89.5,78.0,29.77,South,176,7.0,7.0,69,0.00,,,0.00,Wunderground v.1.15,2013-06-01 17:55:00,
2013-06-01 13:00:00,89.6,78.1,29.77,South,174,7.0,7.0,69,0.00,,,0.00,Wunderground v.1.15,2013-06-01 18:00:00,
2013-06-01 13:09:00,89.5,78.4,29.77,SW,215,6.0,6.0,70,0.00,,,0.00,Wunderground v.1.15,2013-06-01 18:09:00,
2013-06-01 13:14:00,89.6,78.1,29.77,SE,139,7.0,7.0,69,0.00,,,0.00,Wunderground v.1.15,2013-06-01 18:14:00,
2013-06-01 13:19:00,89.5,78.0,29.77,South,169,7.0,10.0,69,0.00,,,0.00,Wunderground v.1.15,2013-06-01 18:19:00,
2013-06-01 13:24:00,89.5,78.0,29.77,SSW,198,7.0,10.0,69,0.00,,,0.00,Wunderground v.1.15,2013-06-01 18:24:00,
2013-06-01 13:29:00,89.5,78.0,29.77,SSW,195,8.0,8.0,69,0.00,,,0.00,Wunderground v.1.15,2013-06-01 18:29:00,
2013-06-01 13:34:00,89.7,78.2,29.77,East,101,8.0,8.0,69,0.00,,,0.00,Wunderground v.1.15,2013-06-01 18:34:00,
2013-06-01 13:39:00,89.9,77.9,29.77,South,179,7.0,12.0,68,0.00,,,0.00,Wunderground v.1.15,2013-06-01 18:39:00,
2013-06-01 13:45:00,89.9,78.8,29.77,SSE,158,6.0,12.0,70,0.00,,,0.00,Wunderground v.1.15,2013-06-01 18:45:00,
2013-06-01 13:50:00,90.4,78.8,29.77,ESE,107,6.0,6.0,69,0.00,,,0.00,Wunderground v.1.15,2013-06-01 18:50:00,
2013-06-01 13:55:00,90.0,78.5,29.76,SSE,150,7.0,7.0,69,0.00,,,0.00,Wunderground v.1.15,2013-06-01 18:55:00,
2013-06-01 14:00:00,89.7,77.7,29.76,SE,136,8.0,8.0,68,0.00,,,0.00,Wunderground v.1.15,2013-06-01 19:00:00,
2013-06-01 14:10:00,89.5,78.0,29.76,SSE,160,7.0,8.0,69,0.00,,,0.00,Wunderground v.1.15,2013-06-01 19:10:00,
2013-06-01 14:19:00,89.5,78.0,29.76,South,169,7.0,7.0,69,0.00,,,0.00,Wunderground v.1.15,2013-06-01 19:19:00,
2013-06-01 14:24:00,89.6,78.5,29.76,ESE,111,7.0,7.0,70,0.00,,,0.00,Wunderground v.1.15,2013-06-01 19:24:00,
2013-06-01 14:29:00,89.7,78.6,29.75,SSE,167,8.0,8.0,70,0.00,,,0.00,Wunderground v.1.15,2013-06-01 19:29:00,
2013-06-01 14:34:00,89.4,78.8,29.75,SSW,204,7.0,8.0,71,0.00,,,0.00,Wunderground v.1.15,2013-06-01 19:34:00,
2013-06-01 14:39:00,89.3,78.7,29.75,East,92,8.0,8.0,71,0.00,,,0.00,Wunderground v.1.15,2013-06-01 19:39:00,
2013-06-01 14:44:00,89.4,78.3,29.75,SE,124,8.0,8.0,70,0.00,,,0.00,Wunderground v.1.15,2013-06-01 19:44:00,
2013-06-01 14:50:00,89.1,78.5,29.75,SE,138,7.0,7.0,71,0.00,,,0.00,Wunderground v.1.15,2013-06-01 19:50:00,
2013-06-01 14:55:00,89.6,78.5,29.75,ESE,122,7.0,7.0,70,0.00,,,0.00,Wunderground v.1.15,2013-06-01 19:55:00,
2013-06-01 15:00:00,89.8,78.3,29.75,East,98,6.0,9.0,69,0.00,,,0.00,Wunderground v.1.15,2013-06-01 20:00:00,
2013-06-01 15:10:00,89.3,78.2,29.75,East,82,7.0,7.0,70,0.00,,,0.00,Wunderground v.1.15,2013-06-01 20:10:00,
2013-06-01 15:15:00,89.3,78.2,29.75,SSE,149,6.0,7.0,70,0.00,,,0.00,Wunderground v.1.15,2013-06-01 20:15:00,
2013-06-01 15:24:00,88.4,77.8,29.75,SE,138,8.0,8.0,71,0.00,,,0.00,Wunderground v.1.15,2013-06-01 20:24:00,
2013-06-01 15:29:00,88.4,78.2,29.75,SE,131,8.0,8.0,72,0.00,,,0.00,Wunderground v.1.15,2013-06-01 20:29:00,
2013-06-01 15:34:00,88.1,78.3,29.75,East,98,8.0,8.0,73,0.00,,,0.00,Wunderground v.1.15,2013-06-01 20:34:00,
2013-06-01 15:39:00,88.3,78.5,29.74,South,188,8.0,8.0,73,0.00,,,0.00,Wunderground v.1.15,2013-06-01 20:39:00,
2013-06-01 15:44:00,88.1,77.9,29.74,ESE,108,8.0,8.0,72,0.00,,,0.00,Wunderground v.1.15,2013-06-01 20:44:00,
2013-06-01 15:49:00,88.0,78.3,29.74,East,96,9.0,9.0,73,0.00,,,0.00,Wunderground v.1.15,2013-06-01 20:49:00,
2013-06-01 16:00:00,88.2,78.4,29.74,SE,132,8.0,8.0,73,0.00,,,0.00,Wunderground v.1.15,2013-06-01 21:00:00,
2013-06-01 16:10:00,87.7,78.4,29.74,SE,139,9.0,9.0,74,0.00,,,0.00,Wunderground v.1.15,2013-06-01 21:10:00,
2013-06-01 16:15:00,87.9,78.2,29.74,ESE,109,8.0,10.0,73,0.00,,,0.00,Wunderground v.1.15,2013-06-01 21:15:00,
2013-06-01 16:20:00,88.3,78.1,29.74,SSE,166,7.0,7.0,72,0.00,,,0.00,Wunderground v.1.15,2013-06-01 21:20:00,
2013-06-01 16:29:00,87.8,78.1,29.74,SE,143,8.0,8.0,73,0.00,,,0.00,Wunderground v.1.15,2013-06-01 21:29:00,
2013-06-01 16:34:00,87.8,78.1,29.74,SSE,153,8.0,12.0,73,0.00,,,0.00,Wunderground v.1.15,2013-06-01 21:34:00,
2013-06-01 16:39:00,87.4,78.1,29.74,SSE,159,9.0,14.0,74,0.00,,,0.00,Wunderground v.1.15,2013-06-01 21:39:00,
2013-06-01 16:44:00,87.5,78.2,29.74,SE,132,9.0,14.0,74,0.00,,,0.00,Wunderground v.1.15,2013-06-01 21:44:00,
2013-06-01 16:49:00,87.2,78.3,29.74,ESE,123,8.0,9.0,75,0.00,,,0.00,Wunderground v.1.15,2013-06-01 21:49:00,
2013-06-01 16:54:00,87.4,78.5,29.74,ENE,74,8.0,10.0,75,0.00,,,0.00,Wunderground v.1.15,2013-06-01 21:54:00,
2013-06-01 17:00:00,87.2,78.3,29.74,ESE,113,8.0,12.0,75,0.00,,,0.00,Wunderground v.1.15,2013-06-01 22:00:00,
2013-06-01 17:10:00,86.6,77.7,29.74,ESE,113,8.0,16.0,75,0.00,,,0.00,Wunderground v.1.15,2013-06-01 22:10:00,
2013-06-01 17:15:00,86.2,77.7,29.74,NE,50,10.0,16.0,76,0.00,,,0.00,Wunderground v.1.15,2013-06-01 22:15:00,
2013-06-01 17:20:00,86.1,78.0,29.74,SE,127,10.0,10.0,77,0.00,,,0.00,Wunderground v.1.15,2013-06-01 22:20:00,
2013-06-01 17:25:00,86.2,77.7,29.74,SE,131,9.0,14.0,76,0.00,,,0.00,Wunderground v.1.15,2013-06-01 22:25:00,
2013-06-01 17:34:00,85.8,77.4,29.74,ESE,116,10.0,10.0,76,0.00,,,0.00,Wunderground v.1.15,2013-06-01 22:34:00,
2013-06-01 17:39:00,85.9,77.8,29.74,ESE,112,9.0,9.0,77,0.00,,,0.00,Wunderground v.1.15,2013-06-01 22:39:00,
2013-06-01 17:44:00,86.2,78.5,29.74,East,90,8.0,9.0,78,0.00,,,0.00,Wunderground v.1.15,2013-06-01 22:44:00,
2013-06-01 17:49:00,85.9,78.2,29.74,SE,145,9.0,9.0,78,0.00,,,0.00,Wunderground v.1.15,2013-06-01 22:49:00,
2013-06-01 17:54:00,85.6,77.9,29.74,East,100,9.0,9.0,78,0.00,,,0.00,Wunderground v.1.15,2013-06-01 22:54:00,
2013-06-01 18:00:00,85.3,78.0,29.74,East,81,8.0,8.0,79,0.00,,,0.00,Wunderground v.1.15,2013-06-01 23:00:00,
2013-06-01 18:10:00,85.0,77.8,29.74,ESE,105,7.0,8.0,79,0.00,,,0.00,Wunderground v.1.15,2013-06-01 23:10:00,
2013-06-01 18:15:00,84.9,77.7,29.74,East,90,8.0,9.0,79,0.00,,,0.00,Wunderground v.1.15,2013-06-01 23:15:00,
2013-06-01 18:20:00,84.9,78.0,29.74,East,93,8.0,9.0,80,0.00,,,0.00,Wunderground v.1.15,2013-06-01 23:20:00,
2013-06-01 18:25:00,84.7,77.8,29.75,South,175,8.0,11.0,80,0.00,,,0.00,Wunderground v.1.15,2013-06-01 23:25:00,
2013-06-01 18:30:00,84.6,77.7,29.75,ESE,116,9.0,11.0,80,0.00,,,0.00,Wunderground v.1.15,2013-06-01 23:30:00,
2013-06-01 18:40:00,84.1,78.0,29.75,ESE,117,10.0,14.0,82,0.00,,,0.00,Wunderground v.1.15,2013-06-01 23:40:00,
2013-06-01 18:45:00,84.0,77.9,29.74,ENE,73,9.0,14.0,82,0.00,,,0.00,Wunderground v.1.15,2013-06-01 23:45:00,
2013-06-01 18:50:00,84.0,77.9,29.75,ESE,118,9.0,9.0,82,0.00,,,0.00,Wunderground v.1.15,2013-06-01 23:50:00,
2013-06-01 18:55:00,84.0,77.9,29.75,East,96,9.0,10.0,82,0.00,,,0.00,Wunderground v.1.15,2013-06-01 23:55:00,
2013-06-01 19:00:00,83.7,78.0,29.74,SE,124,8.0,8.0,83,0.00,,,0.00,Wunderground v.1.15,2013-06-02 00:00:00,
2013-06-01 19:10:00,83.4,77.7,29.74,SE,131,8.0,8.0,83,0.00,,,0.00,Wunderground v.1.15,2013-06-02 00:10:00,
2013-06-01 19:15:00,83.4,77.7,29.75,East,98,8.0,15.0,83,0.00,,,0.00,Wunderground v.1.15,2013-06-02 00:15:00,
2013-06-01 19:20:00,83.3,77.6,29.75,NE,56,8.0,8.0,83,0.00,,,0.00,Wunderground v.1.15,2013-06-02 00:20:00,
2013-06-01 19:25:00,83.1,77.8,29.75,ESE,121,8.0,12.0,84,0.00,,,0.00,Wunderground v.1.15,2013-06-02 00:25:00,
2013-06-01 19:30:00,83.1,77.8,29.75,East,100,7.0,8.0,84,0.00,,,0.00,Wunderground v.1.15,2013-06-02 00:30:00,
2013-06-01 19:35:00,82.7,77.4,29.75,East,82,8.0,11.0,84,0.00,,,0.00,Wunderground v.1.15,2013-06-02 00:35:00,
2013-06-01 19:45:00,82.5,77.2,29.75,East,94,8.0,11.0,84,0.00,,,0.00,Wunderground v.1.15,2013-06-02 00:45:00,
2013-06-01 19:50:00,82.3,77.3,29.75,ESE,113,8.0,8.0,85,0.00,,,0.00,Wunderground v.1.15,2013-06-02 00:50:00,
2013-06-01 19:55:00,82.2,77.2,29.76,SE,134,8.0,8.0,85,0.00,,,0.00,Wunderground v.1.15,2013-06-02 00:55:00,
2013-06-01 20:00:00,82.1,77.1,29.76,East,91,8.0,8.0,85,0.00,,,0.00,Wunderground v.1.15,2013-06-02 01:00:00,
2013-06-01 20:10:00,81.9,76.9,29.76,East,81,9.0,9.0,85,0.00,,,0.00,Wunderground v.1.15,2013-06-02 01:10:00,
2013-06-01 20:20:00,81.8,77.2,29.76,ESE,109,8.0,8.0,86,0.00,,,0.00,Wunderground v.1.15,2013-06-02 01:20:00,
2013-06-01 20:25:00,81.8,77.2,29.76,SE,135,8.0,8.0,86,0.00,,,0.00,Wunderground v.1.15,2013-06-02 01:25:00,
2013-06-01 20:30:00,81.8,77.2,29.76,ESE,115,8.0,8.0,86,0.00,,,0.00,Wunderground v.1.15,2013-06-02 01:30:00,
2013-06-01 20:35:00,81.7,77.1,29.77,ESE,107,7.0,11.0,86,0.00,,,0.00,Wunderground v.1.15,2013-06-02 01:35:00,
2013-06-01 20:40:00,81.7,77.1,29.77,ENE,74,7.0,7.0,86,0.00,,,0.00,Wunderground v.1.15,2013-06-02 01:40:00,
2013-06-01 20:50:00,81.7,77.1,29.77,ESE,103,7.0,7.0,86,0.00,,,0.00,Wunderground v.1.15,2013-06-02 01:50:00,
2013-06-01 20:55:00,81.7,77.1,29.78,East,99,8.0,8.0,86,0.00,,,0.00,Wunderground v.1.15,2013-06-02 01:55:00,
2013-06-01 21:00:00,81.7,76.7,29.78,ESE,115,7.0,7.0,85,0.00,,,0.00,Wunderground v.1.15,2013-06-02 02:00:00,
2013-06-01 21:10:00,81.7,77.1,29.78,SSE,156,7.0,7.0,86,0.00,,,0.00,Wunderground v.1.15,2013-06-02 02:10:00,
2013-06-01 21:15:00,81.7,77.1,29.78,SE,143,7.0,9.0,86,0.00,,,0.00,Wunderground v.1.15,2013-06-02 02:15:00,
2013-06-01 21:25:00,81.6,77.0,29.78,SE,131,8.0,8.0,86,0.00,,,0.00,Wunderground v.1.15,2013-06-02 02:25:00,
2013-06-01 21:30:00,81.6,77.0,29.78,ENE,71,8.0,8.0,86,0.00,,,0.00,Wunderground v.1.15,2013-06-02 02:30:00,
2013-06-01 21:35:00,81.6,77.0,29.78,SE,134,8.0,8.0,86,0.00,,,0.00,Wunderground v.1.15,2013-06-02 02:35:00,
2013-06-01 21:40:00,81.5,76.9,29.78,ESE,115,7.0,7.0,86,0.00,,,0.00,Wunderground v.1.15,2013-06-02 02:40:00,
2013-06-01 21:45:00,81.5,76.9,29.79,East,86,7.0,7.0,86,0.00,,,0.00,Wunderground v.1.15,2013-06-02 02:45:00,
2013-06-01 21:55:00,81.5,76.9,29.80,SE,128,6.0,9.0,86,0.00,,,0.00,Wunderground v.1.15,2013-06-02 02:55:00,
2013-06-01 22:00:00,81.4,76.8,29.80,ESE,122,6.0,6.0,86,0.00,,,0.00,Wunderground v.1.15,2013-06-02 03:00:00,
2013-06-01 22:10:00,81.4,76.8,29.81,East,96,5.0,7.0,86,0.00,,,0.00,Wunderground v.1.15,2013-06-02 03:10:00,
2013-06-01 22:15:00,81.5,77.3,29.82,SSE,152,4.0,7.0,87,0.00,,,0.00,Wunderground v.1.15,2013-06-02 03:15:00,
2013-06-01 22:25:00,81.3,77.1,29.82,East,97,6.0,6.0,87,0.00,,,0.00,Wunderground v.1.15,2013-06-02 03:25:00,
2013-06-01 22:30:00,81.3,76.7,29.82,SSE,156,6.0,6.0,86,0.00,,,0.00,Wunderground v.1.15,2013-06-02 03:30:00,
2013-06-01 22:35:00,81.3,77.1,29.82,ESE,109,5.0,8.0,87,0.00,,,0.00,Wunderground v.1.15,2013-06-02 03:35:00,
2013-06-01 22:40:00,81.4,77.2,29.83,East,92,5.0,5.0,87,0.00,,,0.00,Wunderground v.1.15,2013-06-02 03:40:00,
2013-06-01 22:45:00,81.4,77.2,29.83,South,169,5.0,6.0,87,0.00,,,0.00,Wunderground v.1.15,2013-06-02 03:45:00,
2013-06-01 22:50:00,81.4,77.2,29.83,ESE,109,5.0,5.0,87,0.00,,,0.00,Wunderground v.1.15,2013-06-02 03:50:00,
2013-06-01 23:00:00,81.3,77.1,29.83,SE,131,5.0,5.0,87,0.00,,,0.00,Wunderground v.1.15,2013-06-02 04:00:00,
2013-06-01 23:05:00,81.3,77.1,29.83,ESE,119,5.0,5.0,87,0.00,,,0.00,Wunderground v.1.15,2013-06-02 04:05:00,
2013-06-01 23:10:00,81.3,77.1,29.83,SE,142,5.0,7.0,87,0.00,,,0.00,Wunderground v.1.15,2013-06-02 04:10:00,
2013-06-01 23:14:00,81.2,77.0,29.83,ESE,111,5.0,7.0,87,0.00,,,0.00,Wunderground v.1.15,2013-06-02 04:14:00,
2013-06-01 23:19:00,81.2,77.0,29.84,SE,145,4.0,4.0,87,0.00,,,0.00,Wunderground v.1.15,2013-06-02 04:19:00,
2013-06-01 23:24:00,81.1,76.9,29.83,ESE,107,3.0,5.0,87,0.00,,,0.00,Wunderground v.1.15,2013-06-02 04:24:00,
2013-06-01 23:30:00,81.1,76.9,29.83,ESE,108,5.0,9.0,87,0.00,,,0.00,Wunderground v.1.15,2013-06-02 04:30:00,
2013-06-01 23:35:00,81.0,76.8,29.83,SSE,150,6.0,9.0,87,0.00,,,0.00,Wunderground v.1.15,2013-06-02 04:35:00,
2013-06-01 23:40:00,81.0,76.8,29.83,ESE,110,5.0,5.0,87,0.00,,,0.00,Wunderground v.1.15,2013-06-02 04:40:00,
2013-06-01 23:45:00,81.0,77.1,29.83,ESE,107,4.0,5.0,88,0.00,,,0.00,Wunderground v.1.15,2013-06-02 04:45:00,
2013-06-01 23:50:00,81.0,77.1,29.83,SSE,152,4.0,5.0,88,0.00,,,0.00,Wunderground v.1.15,2013-06-02 04:50:00,
2013-06-01 23:55:00,81.0,77.1,29.83,ESE,105,4.0,5.0,88,0.00,,,0.00,Wunderground v.1.15,2013-06-02 04:55:00,